Year,Month,Day,Hour,Minute,Value (Times are PST for temperature in C)
2021,04,27,00,00,9.70
2021,04,27,00,01,9.70
2021,04,27,00,02,9.70
2021,04,27,00,03,9.70
2021,04,27,00,04,9.70
2021,04,27,00,05,9.70
2021,04,27,00,06,9.70
2021,04,27,00,07,9.70
2021,04,27,00,08,9.60
2021,04,27,00,09,9.60
2021,04,27,00,10,9.60
2021,04,27,00,11,9.60
2021,04,27,00,12,9.60
2021,04,27,00,13,9.60
2021,04,27,00,14,9.60
2021,04,27,00,15,9.60
2021,04,27,00,16,9.60
2021,04,27,00,17,9.60
2021,04,27,00,18,9.60
2021,04,27,00,19,9.60
2021,04,27,00,20,9.60
2021,04,27,00,21,9.60
2021,04,27,00,22,9.60
2021,04,27,00,23,9.60
2021,04,27,00,24,9.60
2021,04,27,00,25,9.60
2021,04,27,00,26,9.60
2021,04,27,00,27,9.60
2021,04,27,00,28,9.60
2021,04,27,00,29,9.60
2021,04,27,00,30,9.70
2021,04,27,00,31,9.70
2021,04,27,00,32,9.70
2021,04,27,00,33,9.70
2021,04,27,00,34,9.70
2021,04,27,00,35,9.70
2021,04,27,00,36,9.70
2021,04,27,00,37,9.70
2021,04,27,00,38,9.70
2021,04,27,00,39,9.70
2021,04,27,00,40,9.70
2021,04,27,00,41,9.70
2021,04,27,00,42,9.70
2021,04,27,00,43,9.70
2021,04,27,00,44,9.70
2021,04,27,00,45,9.60
2021,04,27,00,46,9.70
2021,04,27,00,47,9.70
2021,04,27,00,48,9.70
2021,04,27,00,49,9.60
2021,04,27,00,50,9.60
2021,04,27,00,51,9.60
2021,04,27,00,52,9.60
2021,04,27,00,53,9.60
2021,04,27,00,54,9.60
2021,04,27,00,55,9.60
2021,04,27,00,56,9.60
2021,04,27,00,57,9.60
2021,04,27,00,58,9.60
2021,04,27,00,59,9.60
2021,04,27,01,00,9.60
2021,04,27,01,01,9.50
2021,04,27,01,02,9.60
2021,04,27,01,03,9.50
2021,04,27,01,04,9.50
2021,04,27,01,05,9.50
2021,04,27,01,06,9.50
2021,04,27,01,07,9.50
2021,04,27,01,08,9.50
2021,04,27,01,09,9.50
2021,04,27,01,10,9.50
2021,04,27,01,11,9.50
2021,04,27,01,12,9.50
2021,04,27,01,13,9.50
2021,04,27,01,14,9.50
2021,04,27,01,15,9.40
2021,04,27,01,16,9.40
2021,04,27,01,17,9.40
2021,04,27,01,18,9.40
2021,04,27,01,19,9.40
2021,04,27,01,20,9.40
2021,04,27,01,21,9.40
2021,04,27,01,22,9.40
2021,04,27,01,23,9.40
2021,04,27,01,24,9.40
2021,04,27,01,25,9.30
2021,04,27,01,26,9.30
2021,04,27,01,27,9.30
2021,04,27,01,28,9.30
2021,04,27,01,29,9.30
2021,04,27,01,30,9.30
2021,04,27,01,31,9.30
2021,04,27,01,32,9.30
2021,04,27,01,33,9.30
2021,04,27,01,34,9.20
2021,04,27,01,35,9.20
2021,04,27,01,36,9.20
2021,04,27,01,37,9.20
2021,04,27,01,38,9.20
2021,04,27,01,39,9.20
2021,04,27,01,40,9.20
2021,04,27,01,41,9.20
2021,04,27,01,42,9.10
2021,04,27,01,43,9.10
2021,04,27,01,44,9.10
2021,04,27,01,45,9.00
2021,04,27,01,46,9.00
2021,04,27,01,47,9.00
2021,04,27,01,48,9.00
2021,04,27,01,49,8.90
2021,04,27,01,50,8.90
2021,04,27,01,51,8.90
2021,04,27,01,52,8.80
2021,04,27,01,53,8.80
2021,04,27,01,54,8.80
2021,04,27,01,55,8.80
2021,04,27,01,56,8.80
2021,04,27,01,57,8.70
2021,04,27,01,58,8.70
2021,04,27,01,59,8.70
2021,04,27,02,00,8.70
2021,04,27,02,01,8.70
2021,04,27,02,02,8.70
2021,04,27,02,03,8.70
2021,04,27,02,04,8.70
2021,04,27,02,05,8.60
2021,04,27,02,06,8.60
2021,04,27,02,07,8.60
2021,04,27,02,08,8.60
2021,04,27,02,09,8.60
2021,04,27,02,10,8.60
2021,04,27,02,11,8.60
2021,04,27,02,12,8.60
2021,04,27,02,13,8.60
2021,04,27,02,14,8.60
2021,04,27,02,15,8.60
2021,04,27,02,16,8.60
2021,04,27,02,17,8.60
2021,04,27,02,18,8.60
2021,04,27,02,19,8.60
2021,04,27,02,20,8.60
2021,04,27,02,21,8.60
2021,04,27,02,22,8.60
2021,04,27,02,23,8.60
2021,04,27,02,24,8.60
2021,04,27,02,25,8.60
2021,04,27,02,26,8.60
2021,04,27,02,27,8.60
2021,04,27,02,28,8.60
2021,04,27,02,29,8.60
2021,04,27,02,30,8.60
2021,04,27,02,31,8.60
2021,04,27,02,32,8.60
2021,04,27,02,33,8.60
2021,04,27,02,34,8.60
2021,04,27,02,35,8.60
2021,04,27,02,36,8.50
2021,04,27,02,37,8.60
2021,04,27,02,38,8.50
2021,04,27,02,39,8.50
2021,04,27,02,40,8.50
2021,04,27,02,41,8.50
2021,04,27,02,42,8.50
2021,04,27,02,43,8.50
2021,04,27,02,44,8.50
2021,04,27,02,45,8.50
2021,04,27,02,46,8.50
2021,04,27,02,47,8.50
2021,04,27,02,48,8.50
2021,04,27,02,49,8.50
2021,04,27,02,50,8.40
2021,04,27,02,51,8.50
2021,04,27,02,52,8.50
2021,04,27,02,53,8.40
2021,04,27,02,54,8.40
2021,04,27,02,55,8.40
2021,04,27,02,56,8.40
2021,04,27,02,57,8.40
2021,04,27,02,58,8.40
2021,04,27,02,59,8.40
2021,04,27,03,00,8.40
2021,04,27,03,01,8.40
2021,04,27,03,02,8.30
2021,04,27,03,03,8.30
2021,04,27,03,04,8.30
2021,04,27,03,05,8.30
2021,04,27,03,06,8.30
2021,04,27,03,07,8.30
2021,04,27,03,08,8.30
2021,04,27,03,09,8.30
2021,04,27,03,10,8.20
2021,04,27,03,11,8.20
2021,04,27,03,12,8.20
2021,04,27,03,13,8.20
2021,04,27,03,14,8.20
2021,04,27,03,15,8.20
2021,04,27,03,16,8.20
2021,04,27,03,17,8.10
2021,04,27,03,18,8.10
2021,04,27,03,19,8.10
2021,04,27,03,20,8.10
2021,04,27,03,21,8.10
2021,04,27,03,22,8.10
2021,04,27,03,23,8.10
2021,04,27,03,24,8.00
2021,04,27,03,25,8.00
2021,04,27,03,26,8.00
2021,04,27,03,27,8.00
2021,04,27,03,28,8.00
2021,04,27,03,29,8.00
2021,04,27,03,30,8.00
2021,04,27,03,31,8.00
2021,04,27,03,32,8.00
2021,04,27,03,33,7.90
2021,04,27,03,34,7.90
2021,04,27,03,35,7.90
2021,04,27,03,36,7.90
2021,04,27,03,37,7.90
2021,04,27,03,38,7.90
2021,04,27,03,39,7.90
2021,04,27,03,40,7.90
2021,04,27,03,41,7.90
2021,04,27,03,42,7.90
2021,04,27,03,43,7.80
2021,04,27,03,44,7.80
2021,04,27,03,45,7.80
2021,04,27,03,46,7.80
2021,04,27,03,47,7.80
2021,04,27,03,48,7.80
2021,04,27,03,49,7.70
2021,04,27,03,50,7.70
2021,04,27,03,51,7.70
2021,04,27,03,52,7.70
2021,04,27,03,53,7.70
2021,04,27,03,54,7.70
2021,04,27,03,55,7.70
2021,04,27,03,56,7.70
2021,04,27,03,57,7.70
2021,04,27,03,58,7.70
2021,04,27,03,59,7.70
2021,04,27,04,00,7.70
2021,04,27,04,01,7.70
2021,04,27,04,02,7.70
2021,04,27,04,03,7.70
2021,04,27,04,04,7.70
2021,04,27,04,05,7.70
2021,04,27,04,06,7.70
2021,04,27,04,07,7.70
2021,04,27,04,08,7.60
2021,04,27,04,09,7.60
2021,04,27,04,10,7.60
2021,04,27,04,11,7.60
2021,04,27,04,12,7.60
2021,04,27,04,13,7.50
2021,04,27,04,14,7.50
2021,04,27,04,15,7.50
2021,04,27,04,16,7.40
2021,04,27,04,17,7.40
2021,04,27,04,18,7.40
2021,04,27,04,19,7.40
2021,04,27,04,20,7.40
2021,04,27,04,21,7.40
2021,04,27,04,22,7.30
2021,04,27,04,23,7.30
2021,04,27,04,24,7.30
2021,04,27,04,25,7.30
2021,04,27,04,26,7.30
2021,04,27,04,27,7.30
2021,04,27,04,28,7.30
2021,04,27,04,29,7.30
2021,04,27,04,30,7.30
2021,04,27,04,31,7.30
2021,04,27,04,32,7.30
2021,04,27,04,33,7.30
2021,04,27,04,34,7.30
2021,04,27,04,35,7.30
2021,04,27,04,36,7.20
2021,04,27,04,37,7.20
2021,04,27,04,38,7.20
2021,04,27,04,39,7.20
2021,04,27,04,40,7.20
2021,04,27,04,41,7.20
2021,04,27,04,42,7.20
2021,04,27,04,43,7.20
2021,04,27,04,44,7.20
2021,04,27,04,45,7.20
2021,04,27,04,46,7.20
2021,04,27,04,47,7.10
2021,04,27,04,48,7.20
2021,04,27,04,49,7.10
2021,04,27,04,50,7.10
2021,04,27,04,51,7.10
2021,04,27,04,52,7.10
2021,04,27,04,53,7.10
2021,04,27,04,54,7.10
2021,04,27,04,55,7.10
2021,04,27,04,56,7.10
2021,04,27,04,57,7.10
2021,04,27,04,58,7.10
2021,04,27,04,59,7.10
2021,04,27,05,00,7.10
2021,04,27,05,01,7.10
2021,04,27,05,02,7.10
2021,04,27,05,03,7.10
2021,04,27,05,04,7.20
2021,04,27,05,05,7.10
2021,04,27,05,06,7.10
2021,04,27,05,07,7.10
2021,04,27,05,08,7.20
2021,04,27,05,09,7.10
2021,04,27,05,10,7.10
2021,04,27,05,11,7.20
2021,04,27,05,12,7.10
2021,04,27,05,13,7.10
2021,04,27,05,14,7.10
2021,04,27,05,15,7.10
2021,04,27,05,16,7.10
2021,04,27,05,17,7.10
2021,04,27,05,18,7.10
2021,04,27,05,19,7.10
2021,04,27,05,20,7.10
2021,04,27,05,21,7.10
2021,04,27,05,22,7.20
2021,04,27,05,23,7.10
2021,04,27,05,24,7.20
2021,04,27,05,25,7.20
2021,04,27,05,26,7.20
2021,04,27,05,27,7.20
2021,04,27,05,28,7.20
2021,04,27,05,29,7.20
2021,04,27,05,30,7.20
2021,04,27,05,31,7.20
2021,04,27,05,32,7.20
2021,04,27,05,33,7.20
2021,04,27,05,34,7.20
2021,04,27,05,35,7.20
2021,04,27,05,36,7.20
2021,04,27,05,37,7.20
2021,04,27,05,38,7.20
2021,04,27,05,39,7.20
2021,04,27,05,40,7.20
2021,04,27,05,41,7.20
2021,04,27,05,42,7.20
2021,04,27,05,43,7.20
2021,04,27,05,44,7.20
2021,04,27,05,45,7.20
2021,04,27,05,46,7.30
2021,04,27,05,47,7.30
2021,04,27,05,48,7.30
2021,04,27,05,49,7.30
2021,04,27,05,50,7.30
2021,04,27,05,51,7.30
2021,04,27,05,52,7.30
2021,04,27,05,53,7.30
2021,04,27,05,54,7.30
2021,04,27,05,55,7.30
2021,04,27,05,56,7.30
2021,04,27,05,57,7.30
2021,04,27,05,58,7.30
2021,04,27,05,59,7.30
2021,04,27,06,00,7.30
2021,04,27,06,01,7.30
2021,04,27,06,02,7.30
2021,04,27,06,03,7.30
2021,04,27,06,04,7.30
2021,04,27,06,05,7.30
2021,04,27,06,06,7.30
2021,04,27,06,07,7.30
2021,04,27,06,08,7.30
2021,04,27,06,09,7.30
2021,04,27,06,10,7.30
2021,04,27,06,11,7.30
2021,04,27,06,12,7.30
2021,04,27,06,13,7.30
2021,04,27,06,14,7.30
2021,04,27,06,15,7.30
2021,04,27,06,16,7.30
2021,04,27,06,17,7.30
2021,04,27,06,18,7.30
2021,04,27,06,19,7.30
2021,04,27,06,20,7.30
2021,04,27,06,21,7.30
2021,04,27,06,22,7.30
2021,04,27,06,23,7.30
2021,04,27,06,24,7.20
2021,04,27,06,25,7.30
2021,04,27,06,26,7.20
2021,04,27,06,27,7.30
2021,04,27,06,28,7.30
2021,04,27,06,29,7.20
2021,04,27,06,30,7.20
2021,04,27,06,31,7.20
2021,04,27,06,32,7.20
2021,04,27,06,33,7.20
2021,04,27,06,34,7.20
2021,04,27,06,35,7.20
2021,04,27,06,36,7.20
2021,04,27,06,37,7.20
2021,04,27,06,38,7.20
2021,04,27,06,39,7.20
2021,04,27,06,40,7.20
2021,04,27,06,41,7.20
2021,04,27,06,42,7.20
2021,04,27,06,43,7.10
2021,04,27,06,44,7.10
2021,04,27,06,45,7.10
2021,04,27,06,46,7.10
2021,04,27,06,47,7.10
2021,04,27,06,48,7.10
2021,04,27,06,49,7.10
2021,04,27,06,50,7.10
2021,04,27,06,51,7.10
2021,04,27,06,52,7.10
2021,04,27,06,53,7.10
2021,04,27,06,54,7.10
2021,04,27,06,55,7.10
2021,04,27,06,56,7.10
2021,04,27,06,57,7.10
2021,04,27,06,58,7.10
2021,04,27,06,59,7.10
2021,04,27,07,00,7.10
2021,04,27,07,01,7.10
2021,04,27,07,02,7.10
2021,04,27,07,03,7.10
2021,04,27,07,04,7.10
2021,04,27,07,05,7.20
2021,04,27,07,06,7.20
2021,04,27,07,07,7.20
2021,04,27,07,08,7.20
2021,04,27,07,09,7.20
2021,04,27,07,10,7.20
2021,04,27,07,11,7.20
2021,04,27,07,12,7.20
2021,04,27,07,13,7.20
2021,04,27,07,14,7.20
2021,04,27,07,15,7.20
2021,04,27,07,16,7.20
2021,04,27,07,17,7.30
2021,04,27,07,18,7.30
2021,04,27,07,19,7.30
2021,04,27,07,20,7.30
2021,04,27,07,21,7.30
2021,04,27,07,22,7.40
2021,04,27,07,23,7.40
2021,04,27,07,24,7.40
2021,04,27,07,25,7.50
2021,04,27,07,26,7.50
2021,04,27,07,27,7.50
2021,04,27,07,28,7.60
2021,04,27,07,29,7.60
2021,04,27,07,30,7.60
2021,04,27,07,31,7.70
2021,04,27,07,32,7.70
2021,04,27,07,33,7.70
2021,04,27,07,34,7.70
2021,04,27,07,35,7.70
2021,04,27,07,36,7.80
2021,04,27,07,37,7.80
2021,04,27,07,38,7.80
2021,04,27,07,39,7.90
2021,04,27,07,40,7.90
2021,04,27,07,41,7.90
2021,04,27,07,42,7.90
2021,04,27,07,43,7.90
2021,04,27,07,44,8.00
2021,04,27,07,45,8.00
2021,04,27,07,46,8.00
2021,04,27,07,47,8.10
2021,04,27,07,48,8.10
2021,04,27,07,49,8.10
2021,04,27,07,50,8.10
2021,04,27,07,51,8.20
2021,04,27,07,52,8.20
2021,04,27,07,53,8.20
2021,04,27,07,54,8.30
2021,04,27,07,55,8.30
2021,04,27,07,56,8.30
2021,04,27,07,57,8.40
2021,04,27,07,58,8.40
2021,04,27,07,59,8.40
2021,04,27,08,00,8.50
2021,04,27,08,01,8.50
2021,04,27,08,02,8.60
2021,04,27,08,03,8.60
2021,04,27,08,04,8.70
2021,04,27,08,05,8.70
2021,04,27,08,06,8.80
2021,04,27,08,07,8.80
2021,04,27,08,08,8.80
2021,04,27,08,09,8.80
2021,04,27,08,10,8.90
2021,04,27,08,11,8.90
2021,04,27,08,12,8.90
2021,04,27,08,13,8.90
2021,04,27,08,14,8.90
2021,04,27,08,15,9.00
2021,04,27,08,16,9.00
2021,04,27,08,17,9.10
2021,04,27,08,18,9.10
2021,04,27,08,19,9.20
2021,04,27,08,20,9.20
2021,04,27,08,21,9.20
2021,04,27,08,22,9.30
2021,04,27,08,23,9.30
2021,04,27,08,24,9.30
2021,04,27,08,25,9.30
2021,04,27,08,26,9.40
2021,04,27,08,27,9.40
2021,04,27,08,28,9.40
2021,04,27,08,29,9.40
2021,04,27,08,30,9.40
2021,04,27,08,31,9.40
2021,04,27,08,32,9.40
2021,04,27,08,33,9.40
2021,04,27,08,34,9.40
2021,04,27,08,35,9.40
2021,04,27,08,36,9.40
2021,04,27,08,37,9.40
2021,04,27,08,38,9.40
2021,04,27,08,39,9.40
2021,04,27,08,40,9.40
2021,04,27,08,41,9.40
2021,04,27,08,42,9.40
2021,04,27,08,43,9.40
2021,04,27,08,44,9.40
2021,04,27,08,45,9.40
2021,04,27,08,46,9.40
2021,04,27,08,47,9.50
2021,04,27,08,48,9.50
2021,04,27,08,49,9.50
2021,04,27,08,50,9.60
2021,04,27,08,51,9.70
2021,04,27,08,52,9.70
2021,04,27,08,53,9.80
2021,04,27,08,54,9.80
2021,04,27,08,55,9.90
2021,04,27,08,56,9.90
2021,04,27,08,57,10.00
2021,04,27,08,58,10.00
2021,04,27,08,59,10.10
2021,04,27,09,00,10.10
2021,04,27,09,01,10.20
2021,04,27,09,02,10.20
2021,04,27,09,03,10.20
2021,04,27,09,04,10.20
2021,04,27,09,05,10.20
2021,04,27,09,06,10.20
2021,04,27,09,07,10.20
2021,04,27,09,08,10.20
2021,04,27,09,09,10.20
2021,04,27,09,10,10.20
2021,04,27,09,11,10.20
2021,04,27,09,12,10.20
2021,04,27,09,13,10.30
2021,04,27,09,14,10.30
2021,04,27,09,15,10.30
2021,04,27,09,16,10.30
2021,04,27,09,17,10.40
2021,04,27,09,18,10.40
2021,04,27,09,19,10.40
2021,04,27,09,20,10.40
2021,04,27,09,21,10.50
2021,04,27,09,22,10.50
2021,04,27,09,23,10.50
2021,04,27,09,24,10.60
2021,04,27,09,25,10.60
2021,04,27,09,26,10.60
2021,04,27,09,27,10.60
2021,04,27,09,28,10.50
2021,04,27,09,29,10.50
2021,04,27,09,30,10.50
2021,04,27,09,31,10.50
2021,04,27,09,32,10.60
2021,04,27,09,33,10.60
2021,04,27,09,34,10.60
2021,04,27,09,35,10.70
2021,04,27,09,36,10.70
2021,04,27,09,37,10.70
2021,04,27,09,38,10.80
2021,04,27,09,39,10.80
2021,04,27,09,40,10.80
2021,04,27,09,41,10.80
2021,04,27,09,42,10.80
2021,04,27,09,43,10.80
2021,04,27,09,44,10.80
2021,04,27,09,45,10.90
2021,04,27,09,46,10.90
2021,04,27,09,47,10.90
2021,04,27,09,48,10.90
2021,04,27,09,49,10.80
2021,04,27,09,50,10.80
2021,04,27,09,51,10.80
2021,04,27,09,52,10.80
2021,04,27,09,53,10.80
2021,04,27,09,54,10.90
2021,04,27,09,55,10.90
2021,04,27,09,56,11.00
2021,04,27,09,57,11.00
2021,04,27,09,58,11.10
2021,04,27,09,59,11.10
2021,04,27,10,00,11.10
2021,04,27,10,01,11.10
2021,04,27,10,02,11.10
2021,04,27,10,03,11.10
2021,04,27,10,04,11.10
2021,04,27,10,05,11.10
2021,04,27,10,06,11.20
2021,04,27,10,07,11.20
2021,04,27,10,08,11.20
2021,04,27,10,09,11.20
2021,04,27,10,10,11.30
2021,04,27,10,11,11.30
2021,04,27,10,12,11.30
2021,04,27,10,13,11.40
2021,04,27,10,14,11.30
2021,04,27,10,15,11.30
2021,04,27,10,16,11.20
2021,04,27,10,17,11.10
2021,04,27,10,18,11.10
2021,04,27,10,19,11.10
2021,04,27,10,20,11.10
2021,04,27,10,21,11.10
2021,04,27,10,22,11.20
2021,04,27,10,23,11.20
2021,04,27,10,24,11.20
2021,04,27,10,25,11.20
2021,04,27,10,26,11.20
2021,04,27,10,27,11.30
2021,04,27,10,28,11.30
2021,04,27,10,29,11.40
2021,04,27,10,30,11.40
2021,04,27,10,31,11.40
2021,04,27,10,32,11.40
2021,04,27,10,33,11.40
2021,04,27,10,34,11.40
2021,04,27,10,35,11.40
2021,04,27,10,36,11.50
2021,04,27,10,37,11.50
2021,04,27,10,38,11.50
2021,04,27,10,39,11.50
2021,04,27,10,40,11.50
2021,04,27,10,41,11.50
2021,04,27,10,42,11.40
2021,04,27,10,43,11.40
2021,04,27,10,44,11.40
2021,04,27,10,45,11.40
2021,04,27,10,46,11.40
2021,04,27,10,47,11.40
2021,04,27,10,48,11.40
2021,04,27,10,49,11.40
2021,04,27,10,50,11.40
2021,04,27,10,51,11.40
2021,04,27,10,52,11.40
2021,04,27,10,53,11.40
2021,04,27,10,54,11.40
2021,04,27,10,55,11.40
2021,04,27,10,56,11.40
2021,04,27,10,57,11.40
2021,04,27,10,58,11.50
2021,04,27,10,59,11.50
2021,04,27,11,00,11.50
2021,04,27,11,01,11.50
2021,04,27,11,02,11.50
2021,04,27,11,03,11.50
2021,04,27,11,04,11.40
2021,04,27,11,05,11.40
2021,04,27,11,06,11.40
2021,04,27,11,07,11.40
2021,04,27,11,08,11.40
2021,04,27,11,09,11.40
2021,04,27,11,10,11.40
2021,04,27,11,11,11.40
2021,04,27,11,12,11.30
2021,04,27,11,13,11.30
2021,04,27,11,14,11.30
2021,04,27,11,15,11.30
2021,04,27,11,16,11.40
2021,04,27,11,17,11.40
2021,04,27,11,18,11.50
2021,04,27,11,19,11.50
2021,04,27,11,20,11.50
2021,04,27,11,21,11.50
2021,04,27,11,22,11.50
2021,04,27,11,23,11.50
2021,04,27,11,24,11.50
2021,04,27,11,25,11.50
2021,04,27,11,26,11.60
2021,04,27,11,27,11.70
2021,04,27,11,28,11.70
2021,04,27,11,29,11.70
2021,04,27,11,30,11.70
2021,04,27,11,31,11.80
2021,04,27,11,32,11.80
2021,04,27,11,33,11.80
2021,04,27,11,34,11.80
2021,04,27,11,35,11.90
2021,04,27,11,36,11.90
2021,04,27,11,37,12.00
2021,04,27,11,38,12.00
2021,04,27,11,39,12.10
2021,04,27,11,40,12.10
2021,04,27,11,41,12.20
2021,04,27,11,42,12.20
2021,04,27,11,43,12.20
2021,04,27,11,44,12.20
2021,04,27,11,45,12.30
2021,04,27,11,46,12.30
2021,04,27,11,47,12.30
2021,04,27,11,48,12.40
2021,04,27,11,49,12.50
2021,04,27,11,50,12.60
2021,04,27,11,51,12.70
2021,04,27,11,52,12.70
2021,04,27,11,53,12.80
2021,04,27,11,54,12.80
2021,04,27,11,55,12.80
2021,04,27,11,56,12.90
2021,04,27,11,57,13.00
2021,04,27,11,58,12.90
2021,04,27,11,59,12.90
2021,04,27,12,00,13.00
2021,04,27,12,01,13.00
2021,04,27,12,02,13.00
2021,04,27,12,03,13.10
2021,04,27,12,04,13.10
2021,04,27,12,05,13.10
2021,04,27,12,06,13.10
2021,04,27,12,07,13.10
2021,04,27,12,08,13.10
2021,04,27,12,09,13.10
2021,04,27,12,10,13.10
2021,04,27,12,11,13.00
2021,04,27,12,12,12.90
2021,04,27,12,13,12.90
2021,04,27,12,14,12.90
2021,04,27,12,15,12.90
2021,04,27,12,16,12.90
2021,04,27,12,17,12.90
2021,04,27,12,18,12.90
2021,04,27,12,19,12.80
2021,04,27,12,20,12.80
2021,04,27,12,21,12.80
2021,04,27,12,22,12.70
2021,04,27,12,23,12.70
2021,04,27,12,24,12.70
2021,04,27,12,25,12.70
2021,04,27,12,26,12.60
2021,04,27,12,27,12.70
2021,04,27,12,28,12.70
2021,04,27,12,29,12.70
2021,04,27,12,30,12.70
2021,04,27,12,31,12.70
2021,04,27,12,32,12.80
2021,04,27,12,33,12.80
2021,04,27,12,34,12.80
2021,04,27,12,35,12.90
2021,04,27,12,36,12.90
2021,04,27,12,37,12.90
2021,04,27,12,38,13.00
2021,04,27,12,39,13.00
2021,04,27,12,40,13.00
2021,04,27,12,41,13.00
2021,04,27,12,42,13.00
2021,04,27,12,43,13.10
2021,04,27,12,44,13.20
2021,04,27,12,45,13.20
2021,04,27,12,46,13.20
2021,04,27,12,47,13.20
2021,04,27,12,48,13.20
2021,04,27,12,49,13.20
2021,04,27,12,50,13.10
2021,04,27,12,51,13.10
2021,04,27,12,52,13.10
2021,04,27,12,53,13.10
2021,04,27,12,54,13.10
2021,04,27,12,55,13.10
2021,04,27,12,56,13.10
2021,04,27,12,57,13.10
2021,04,27,12,58,13.10
2021,04,27,12,59,13.10
2021,04,27,13,00,13.10
2021,04,27,13,01,13.10
2021,04,27,13,02,13.10
2021,04,27,13,03,13.10
2021,04,27,13,04,13.20
2021,04,27,13,05,13.20
2021,04,27,13,06,13.20
2021,04,27,13,07,13.20
2021,04,27,13,08,13.30
2021,04,27,13,09,13.30
2021,04,27,13,10,13.30
2021,04,27,13,11,13.40
2021,04,27,13,12,13.40
2021,04,27,13,13,13.50
2021,04,27,13,14,13.50
2021,04,27,13,15,13.60
2021,04,27,13,16,13.60
2021,04,27,13,17,13.60
2021,04,27,13,18,13.60
2021,04,27,13,19,13.70
2021,04,27,13,20,13.60
2021,04,27,13,21,13.60
2021,04,27,13,22,13.60
2021,04,27,13,23,13.60
2021,04,27,13,24,13.60
2021,04,27,13,25,13.50
2021,04,27,13,26,13.50
2021,04,27,13,27,13.40
2021,04,27,13,28,13.40
2021,04,27,13,29,13.30
2021,04,27,13,30,13.30
2021,04,27,13,31,13.30
2021,04,27,13,32,13.30
2021,04,27,13,33,13.30
2021,04,27,13,34,13.30
2021,04,27,13,35,13.30
2021,04,27,13,36,13.20
2021,04,27,13,37,13.20
2021,04,27,13,38,13.20
2021,04,27,13,39,13.20
2021,04,27,13,40,13.30
2021,04,27,13,41,13.30
2021,04,27,13,42,13.30
2021,04,27,13,43,13.30
2021,04,27,13,44,13.30
2021,04,27,13,45,13.30
2021,04,27,13,46,13.30
2021,04,27,13,47,13.30
2021,04,27,13,48,13.40
2021,04,27,13,49,13.40
2021,04,27,13,50,13.40
2021,04,27,13,51,13.40
2021,04,27,13,52,13.40
2021,04,27,13,53,13.40
2021,04,27,13,54,13.50
2021,04,27,13,55,13.50
2021,04,27,13,56,13.50
2021,04,27,13,57,13.50
2021,04,27,13,58,13.50
2021,04,27,13,59,13.50
2021,04,27,14,00,13.50
2021,04,27,14,01,13.50
2021,04,27,14,02,13.50
2021,04,27,14,03,13.60
2021,04,27,14,04,13.60
2021,04,27,14,05,13.60
2021,04,27,14,06,13.50
2021,04,27,14,07,13.60
2021,04,27,14,08,13.60
2021,04,27,14,09,13.60
2021,04,27,14,10,13.60
2021,04,27,14,11,13.60
2021,04,27,14,12,13.60
2021,04,27,14,13,13.60
2021,04,27,14,14,13.60
2021,04,27,14,15,13.70
2021,04,27,14,16,13.70
2021,04,27,14,17,13.70
2021,04,27,14,18,13.70
2021,04,27,14,19,13.70
2021,04,27,14,20,13.70
2021,04,27,14,21,13.70
2021,04,27,14,22,13.70
2021,04,27,14,23,13.70
2021,04,27,14,24,13.60
2021,04,27,14,25,13.50
2021,04,27,14,26,13.50
2021,04,27,14,27,13.50
2021,04,27,14,28,13.40
2021,04,27,14,29,13.40
2021,04,27,14,30,13.40
2021,04,27,14,31,13.40
2021,04,27,14,32,13.40
2021,04,27,14,33,13.40
2021,04,27,14,34,13.40
2021,04,27,14,35,13.30
2021,04,27,14,36,13.30
2021,04,27,14,37,13.30
2021,04,27,14,38,13.30
2021,04,27,14,39,13.30
2021,04,27,14,40,13.20
2021,04,27,14,41,13.20
2021,04,27,14,42,13.20
2021,04,27,14,43,13.10
2021,04,27,14,44,13.10
2021,04,27,14,45,13.10
2021,04,27,14,46,13.10
2021,04,27,14,47,13.10
2021,04,27,14,48,13.10
2021,04,27,14,49,13.10
2021,04,27,14,50,13.10
2021,04,27,14,51,13.10
2021,04,27,14,52,13.10
2021,04,27,14,53,13.10
2021,04,27,14,54,13.20
2021,04,27,14,55,13.30
2021,04,27,14,56,13.30
2021,04,27,14,57,13.30
2021,04,27,14,58,13.40
2021,04,27,14,59,13.40
2021,04,27,15,00,13.40
2021,04,27,15,01,13.40
2021,04,27,15,02,13.40
2021,04,27,15,03,13.40
2021,04,27,15,04,13.40
2021,04,27,15,05,13.40
2021,04,27,15,06,13.30
2021,04,27,15,07,13.40
2021,04,27,15,08,13.30
2021,04,27,15,09,13.30
2021,04,27,15,10,13.30
2021,04,27,15,11,13.30
2021,04,27,15,12,13.30
2021,04,27,15,13,13.30
2021,04,27,15,14,13.40
2021,04,27,15,15,13.40
2021,04,27,15,16,13.40
2021,04,27,15,17,13.40
2021,04,27,15,18,13.40
2021,04,27,15,19,13.40
2021,04,27,15,20,13.40
2021,04,27,15,21,13.40
2021,04,27,15,22,13.40
2021,04,27,15,23,13.40
2021,04,27,15,24,13.40
2021,04,27,15,25,13.30
2021,04,27,15,26,13.30
2021,04,27,15,27,13.30
2021,04,27,15,28,13.40
2021,04,27,15,29,13.40
2021,04,27,15,30,13.40
2021,04,27,15,31,13.40
2021,04,27,15,32,13.50
2021,04,27,15,33,13.50
2021,04,27,15,34,13.50
2021,04,27,15,35,13.60
2021,04,27,15,36,13.60
2021,04,27,15,37,13.70
2021,04,27,15,38,13.70
2021,04,27,15,39,13.80
2021,04,27,15,40,13.80
2021,04,27,15,41,13.90
2021,04,27,15,42,13.90
2021,04,27,15,43,13.90
2021,04,27,15,44,13.90
2021,04,27,15,45,13.90
2021,04,27,15,46,13.90
2021,04,27,15,47,13.90
2021,04,27,15,48,13.90
2021,04,27,15,49,14.00
2021,04,27,15,50,14.10
2021,04,27,15,51,14.00
2021,04,27,15,52,14.00
2021,04,27,15,53,13.90
2021,04,27,15,54,13.80
2021,04,27,15,55,13.70
2021,04,27,15,56,13.70
2021,04,27,15,57,13.80
2021,04,27,15,58,13.80
2021,04,27,15,59,13.80
2021,04,27,16,00,13.80
2021,04,27,16,01,13.80
2021,04,27,16,02,13.90
2021,04,27,16,03,13.90
2021,04,27,16,04,13.90
2021,04,27,16,05,14.00
2021,04,27,16,06,14.00
2021,04,27,16,07,14.10
2021,04,27,16,08,14.10
2021,04,27,16,09,14.20
2021,04,27,16,10,14.30
2021,04,27,16,11,14.30
2021,04,27,16,12,14.40
2021,04,27,16,13,14.40
2021,04,27,16,14,14.50
2021,04,27,16,15,14.50
2021,04,27,16,16,14.50
2021,04,27,16,17,14.50
2021,04,27,16,18,14.50
2021,04,27,16,19,14.60
2021,04,27,16,20,14.60
2021,04,27,16,21,14.60
2021,04,27,16,22,14.70
2021,04,27,16,23,14.70
2021,04,27,16,24,14.70
2021,04,27,16,25,14.70
2021,04,27,16,26,14.70
2021,04,27,16,27,14.70
2021,04,27,16,28,14.70
2021,04,27,16,29,14.70
2021,04,27,16,30,14.70
2021,04,27,16,31,14.80
2021,04,27,16,32,14.80
2021,04,27,16,33,14.80
2021,04,27,16,34,14.80
2021,04,27,16,35,14.90
2021,04,27,16,36,14.90
2021,04,27,16,37,14.90
2021,04,27,16,38,14.90
2021,04,27,16,39,14.90
2021,04,27,16,40,14.90
2021,04,27,16,41,14.90
2021,04,27,16,42,14.90
2021,04,27,16,43,14.90
2021,04,27,16,44,14.90
2021,04,27,16,45,14.90
2021,04,27,16,46,14.90
2021,04,27,16,47,14.90
2021,04,27,16,48,14.90
2021,04,27,16,49,14.90
2021,04,27,16,50,14.90
2021,04,27,16,51,14.90
2021,04,27,16,52,14.90
2021,04,27,16,53,14.90
2021,04,27,16,54,14.90
2021,04,27,16,55,14.90
2021,04,27,16,56,14.90
2021,04,27,16,57,14.80
2021,04,27,16,58,14.80
2021,04,27,16,59,14.80
2021,04,27,17,00,14.80
2021,04,27,17,01,14.80
2021,04,27,17,02,14.80
2021,04,27,17,03,14.80
2021,04,27,17,04,14.80
2021,04,27,17,05,14.80
2021,04,27,17,06,14.80
2021,04,27,17,07,14.80
2021,04,27,17,08,14.70
2021,04,27,17,09,14.70
2021,04,27,17,10,14.70
2021,04,27,17,11,14.70
2021,04,27,17,12,14.60
2021,04,27,17,13,14.60
2021,04,27,17,14,14.50
2021,04,27,17,15,14.40
2021,04,27,17,16,14.30
2021,04,27,17,17,14.20
2021,04,27,17,18,14.00
2021,04,27,17,19,14.00
2021,04,27,17,20,13.90
2021,04,27,17,21,13.90
2021,04,27,17,22,13.90
2021,04,27,17,23,13.90
2021,04,27,17,24,13.80
2021,04,27,17,25,13.80
2021,04,27,17,26,13.80
2021,04,27,17,27,13.80
2021,04,27,17,28,13.70
2021,04,27,17,29,13.70
2021,04,27,17,30,13.60
2021,04,27,17,31,13.60
2021,04,27,17,32,13.60
2021,04,27,17,33,13.50
2021,04,27,17,34,13.50
2021,04,27,17,35,13.40
2021,04,27,17,36,13.40
2021,04,27,17,37,13.40
2021,04,27,17,38,13.40
2021,04,27,17,39,13.40
2021,04,27,17,40,13.40
2021,04,27,17,41,13.40
2021,04,27,17,42,13.40